Wind_Speed
10 4 10 21 33 29 25 25 25 24 23 25 25 25 25 22 22 21 21 21 20 20 20 21 21 23 23 23 23 22 22 21 19 17 15 12 11 10 10 8 8 7 7
14 12 8 20 30 33 31 26 25 25 25 25 25 24 23 23 22 21 22 23 23 22 22 22 23 24 24 25 25 25 26 24 24 22 18 12 13 15 15 12 11 9 8
15 13 13 7 12 23 23 25 25 25 26 26 25 23 22 22 24 25 26 25 24 23 24 24 24 25 26 27 27 27 28 28 27 25 16 9 10 18 19 18 16 13 11
16 16 14 18 21 17 16 18 20 22 25 26 27 26 27 27 26 25 24 24 25 26 26 26 26 26 27 28 28 28 28 27 28 29 27 16 8 10 10 21 20 17 15
15 20 21 22 24 18 17 8 17 20 23 27 27 27 27 27 25 25 25 25 26 27 27 28 28 28 29 29 29 29 29 29 29 30 29 29 21 15 12 11 21 21 19
18 22 21 21 23 18 20 12 13 24 24 26 29 30 29 29 29 28 27 28 28 27 28 29 29 29 29 30 30 30 30 31 30 29 30 29 28 25 20 18 16 20 20
11 22 25 26 23 20 19 18 12 14 25 28 31 32 32 32 32 32 30 30 30 31 30 30 31 31 31 31 31 31 31 31 31 31 31 30 29 27 24 22 18 20 20
2 12 13 18 24 25 23 19 15 10 22 25 30 32 33 34 35 36 34 34 33 32 32 31 32 32 31 32 32 33 32 32 31 31 30 29 28 26 23 21 20 16 18
12 9 8 13 17 20 24 26 23 22 23 23 26 28 27 33 37 37 38 37 35 33 34 33 33 34 34 33 33 33 33 33 31 30 29 27 25 22 20 18 17 17 17
13 11 10 9 10 13 17 19 22 27 29 28 31 33 34 35 38 41 41 39 40 38 35 33 35 34 35 35 34 34 34 33 31 29 27 25 22 19 16 15 15 16 16
15 16 16 10 6 6 8 11 16 22 28 32 35 35 34 34 37 42 40 40 40 40 39 37 37 37 38 38 37 36 34 33 31 29 26 22 19 15 11 15 19 17 14
19 16 15 8 7 8 10 12 13 15 18 23 27 33 35 35 38 40 39 38 36 35 38 39 38 40 40 39 39 36 35 34 32 31 27 25 23 20 17 19 18 17 14
18 16 14 12 11 11 12 12 14 17 18 20 23 27 32 36 38 37 38 38 37 37 36 39 39 38 40 39 38 37 36 35 31 28 27 25 28 21 17 20 17 15 13
16 18 20 20 18 15 12 10 11 13 16 17 18 21 24 27 31 33 35 37 41 39 36 37 40 41 39 41 39 36 36 35 32 27 25 28 23 16 19 17 14 14 12
29 27 25 22 22 22 19 17 16 14 15 16 18 19 19 20 22 26 29 32 35 38 41 36 40 45 45 42 38 36 36 32 30 35 34 27 17 18 16 17 14 14 14
35 34 31 27 25 25 25 24 21 19 18 18 19 19 20 19 22 23 25 27 29 32 37 36 38 42 42 45 46 47 47 41 38 35 29 20 18 17 15 16 15 15 14
36 37 35 33 31 27 26 27 28 27 25 24 23 23 23 21 20 22 26 26 28 31 33 34 38 40 42 44 45 47 42 44 38 31 26 21 19 18 18 18 16 15 15
39 41 40 40 36 31 28 28 27 29 29 28 28 27 26 24 23 23 26 29 31 31 32 35 36 39 41 44 44 41 43 40 32 30 23 22 20 19 18 17 14 13 13
38 38 37 41 44 42 39 34 31 29 29 29 30 30 28 28 26 26 25 29 31 33 34 36 38 38 39 44 44 44 39 31 35 28 24 21 19 19 19 16 15 14 13
40 46 46 47 45 44 43 43 39 35 30 29 30 29 30 30 29 26 26 26 31 34 34 35 36 37 42 44 43 41 36 38 28 25 21 21 22 19 18 15 14 15 14
45 43 42 42 43 43 41 42 41 42 38 37 35 33 32 31 30 28 27 26 28 32 34 34 35 39 42 43 42 36 38 30 29 24 24 26 21 18 16 15 14 16 16
47 44 44 44 43 40 39 42 42 40 37 36 38 36 33 32 32 28 27 27 29 31 34 34 35 38 41 42 38 36 30 28 25 26 26 22 19 17 15 16 16 15 18
38 41 44 46 43 39 38 43 44 41 38 34 34 34 32 32 33 29 27 29 29 32 35 37 39 43 43 40 36 33 31 27 28 25 21 19 18 17 16 15 14 16 14
40 41 41 42 45 43 42 40 40 39 36 36 31 32 31 32 33 30 29 29 31 34 37 39 45 47 44 41 37 34 31 30 27 23 20 19 18 15 14 14 14 13 14
36 38 39 41 42 41 42 41 41 34 35 37 30 29 30 31 32 32 31 31 32 34 39 43 49 49 46 41 37 35 34 28 22 23 21 19 17 15 13 13 14 14 14
35 37 37 39 41 40 40 37 35 30 29 32 31 28 29 31 33 33 32 31 30 30 35 41 48 47 45 38 32 27 25 25 25 24 21 18 15 14 14 13 13 14 14
Wind_Direction
141 148 230 264 206 195 198 202 202 200 201 199 200 199 202 204 210 214 218 218 217 213 212 209 209 206 206 203 198 198 200 197 203 197 189 193 203 208 211 213 210 219 225
170 151 177 201 203 194 196 203 208 210 211 213 211 210 208 212 214 219 221 221 221 221 217 214 212 211 209 206 206 205 199 203 202 201 194 193 210 216 218 225 223 230 236
181 138 91 202 189 230 204 208 212 214 214 215 214 215 214 218 221 222 221 221 221 221 220 218 217 216 214 214 212 211 213 207 203 206 199 189 216 214 221 222 225 232 236
183 164 161 166 211 200 234 219 213 219 220 218 217 221 222 222 226 228 227 225 224 223 222 221 220 220 220 217 218 217 218 216 216 211 215 218 207 191 212 220 222 231 237
208 189 188 197 209 208 208 208 206 218 224 226 226 226 228 234 237 235 231 230 229 228 225 224 223 223 222 221 221 220 221 223 224 224 221 223 225 218 216 213 218 224 227
214 211 212 214 217 224 220 246 239 206 222 233 234 233 235 236 237 235 233 234 234 233 231 229 229 228 227 225 225 224 225 226 228 231 234 235 233 232 226 227 220 220 224
211 217 214 215 220 217 231 229 238 232 228 226 237 241 242 243 246 246 242 240 238 236 234 232 231 229 228 226 226 226 226 226 228 230 234 236 239 246 244 238 231 211 216
243 235 252 244 235 233 235 241 252 251 240 244 239 242 245 248 249 249 248 248 248 248 245 240 237 234 232 229 228 229 229 229 229 230 232 234 236 239 241 240 232 209 213
8 3 309 264 263 258 251 245 251 261 261 255 248 255 260 253 252 250 249 250 250 251 250 248 244 240 234 232 232 231 230 229 229 230 230 229 229 228 230 231 232 227 213
344 336 320 308 296 276 272 269 262 260 260 267 264 264 265 260 257 258 253 250 249 248 247 247 246 243 242 238 235 234 232 230 227 225 223 222 217 219 223 228 237 238 238
338 341 334 292 286 299 291 279 272 266 262 264 266 265 265 269 262 257 259 257 250 248 250 247 245 243 241 238 235 235 232 228 222 216 211 209 205 199 228 253 248 243 242
336 346 0 359 319 312 302 299 293 285 280 272 267 266 268 267 269 266 269 253 256 252 249 249 249 246 240 237 234 231 228 226 216 207 202 199 212 231 226 238 244 248 250
347 350 358 3 352 333 317 299 295 297 290 281 276 269 263 264 265 269 267 262 263 259 257 248 246 244 241 237 232 227 222 213 209 214 215 230 236 215 225 236 236 248 258
16 20 19 17 15 15 9 352 341 334 321 309 295 285 277 273 271 269 266 272 269 261 257 253 248 239 237 235 230 224 217 215 216 222 236 231 210 218 228 239 245 254 259
24 19 12 7 6 0 353 348 346 342 334 336 328 311 299 280 275 275 274 274 275 271 262 253 249 237 229 227 226 221 214 219 226 242 234 207 193 223 227 238 245 251 257
5 5 6 5 1 356 351 345 336 325 323 328 327 322 312 309 283 274 277 276 275 275 264 265 259 249 236 227 223 220 214 230 227 230 212 189 203 218 229 241 242 247 255
349 346 345 345 345 342 340 337 336 331 322 318 320 322 316 302 289 282 276 271 270 271 268 263 252 244 237 225 220 225 230 218 230 211 191 190 205 219 230 235 240 246 259
338 334 331 326 324 323 324 320 317 316 312 308 307 309 309 302 290 278 276 272 268 266 264 260 255 245 239 226 223 224 215 222 214 193 191 201 207 219 225 233 240 246 256
326 324 320 318 315 312 308 304 305 303 303 300 300 303 301 298 289 280 274 275 271 263 255 254 249 247 234 223 218 206 211 211 195 184 196 198 210 220 226 230 237 245 256
324 322 316 313 311 310 309 307 301 294 290 292 299 303 296 292 289 280 275 272 269 262 256 253 246 238 223 213 206 210 208 193 182 188 191 210 215 219 226 230 239 250 263
327 326 322 316 312 309 308 304 300 297 291 287 288 293 292 286 284 281 275 271 263 258 250 245 236 223 217 206 203 207 194 182 185 190 202 211 210 217 226 239 249 259 262
331 333 327 322 319 313 307 299 296 294 295 293 286 282 282 280 274 276 274 267 260 253 245 235 222 212 205 200 197 186 180 183 195 203 206 206 211 220 230 240 250 255 266
335 335 329 323 320 317 311 302 295 294 294 291 288 280 279 275 266 268 267 259 253 249 241 230 217 199 195 190 180 180 185 190 203 203 200 204 215 223 233 243 245 261 265
334 332 334 331 326 323 319 307 303 298 293 293 283 280 278 272 263 263 262 255 249 243 237 223 209 195 189 184 179 184 188 193 191 191 199 208 216 225 232 247 259 258 265
334 337 336 334 331 333 325 322 314 303 288 293 287 273 275 272 263 260 260 257 253 248 240 224 208 197 186 183 184 185 186 182 189 203 204 208 217 226 240 251 256 262 265
347 346 346 346 344 341 337 334 330 311 288 287 289 282 275 270 262 255 250 247 246 242 236 230 213 197 191 179 180 173 180 187 199 203 207 213 222 233 243 251 255 258 263
Height
1472 1473 1480 1486 1488 1488 1493 1498 1500 1504 1507 1509 1512 1514 1516 1521 1524 1527 1530 1532 1534 1536 1538 1540 1543 1545 1547 1550 1552 1555 1558 1560 1563 1565 1567 1569 1570 1571 1573 1573 1573 1574 1575
1475 1471 1477 1478 1484 1487 1492 1497 1499 1501 1504 1507 1511 1513 1516 1519 1523 1525 1527 1529 1531 1533 1535 1537 1539 1542 1545 1547 1549 1551 1553 1556 1558 1561 1564 1566 1568 1567 1568 1570 1571 1571 1572
1471 1468 1466 1481 1486 1491 1492 1496 1499 1500 1502 1506 1509 1512 1514 1517 1519 1521 1523 1525 1528 1530 1532 1535 1537 1539 1540 1542 1545 1547 1549 1550 1554 1557 1559 1561 1561 1562 1563 1564 1567 1568 1569
1470 1468 1472 1476 1487 1492 1491 1493 1495 1497 1501 1504 1505 1507 1508 1511 1513 1517 1521 1523 1524 1526 1528 1530 1533 1535 1537 1539 1541 1543 1545 1548 1549 1552 1554 1554 1555 1558 1561 1562 1563 1566 1567
1472 1471 1475 1483 1486 1488 1488 1488 1487 1493 1498 1502 1503 1504 1505 1508 1512 1515 1518 1519 1520 1522 1524 1526 1529 1530 1532 1535 1537 1539 1541 1544 1546 1547 1549 1551 1551 1551 1554 1555 1557 1560 1562
1472 1473 1478 1483 1486 1485 1487 1487 1488 1487 1493 1498 1500 1502 1503 1506 1508 1511 1513 1515 1517 1518 1520 1523 1524 1527 1529 1531 1534 1536 1538 1539 1541 1544 1545 1547 1550 1549 1549 1552 1552 1554 1556
1475 1477 1480 1481 1482 1482 1484 1485 1486 1487 1489 1493 1496 1499 1500 1502 1505 1508 1509 1510 1512 1513 1514 1517 1519 1521 1524 1526 1529 1530 1532 1534 1536 1538 1540 1542 1544 1547 1546 1547 1550 1550 1551
1481 1480 1478 1480 1480 1480 1483 1483 1483 1483 1487 1489 1491 1493 1495 1497 1500 1503 1504 1506 1506 1510 1512 1512 1515 1517 1520 1522 1523 1525 1527 1529 1531 1533 1535 1538 1539 1542 1544 1545 1546 1546 1548
1482 1479 1481 1479 1480 1479 1480 1480 1480 1482 1485 1486 1487 1488 1490 1491 1493 1494 1498 1500 1503 1505 1507 1508 1511 1514 1515 1517 1518 1520 1522 1524 1525 1527 1530 1531 1534 1536 1539 1541 1543 1543 1543
1482 1482 1482 1480 1479 1478 1476 1476 1480 1480 1481 1483 1483 1483 1484 1485 1487 1489 1490 1491 1496 1498 1499 1501 1505 1507 1511 1513 1514 1516 1517 1519 1520 1522 1525 1528 1529 1531 1534 1537 1540 1540 1543
1478 1477 1476 1475 1477 1475 1476 1475 1474 1476 1478 1479 1478 1478 1478 1479 1480 1482 1483 1484 1486 1489 1492 1496 1498 1499 1503 1506 1508 1512 1514 1516 1514 1516 1519 1524 1526 1524 1527 1533 1537 1538 1538
1476 1474 1473 1472 1474 1473 1473 1473 1474 1474 1474 1473 1472 1472 1472 1472 1474 1473 1474 1474 1477 1478 1482 1486 1490 1493 1495 1498 1501 1504 1508 1513 1511 1511 1514 1515 1520 1521 1523 1529 1531 1534 1533
1474 1473 1472 1472 1471 1471 1471 1471 1471 1470 1470 1469 1467 1466 1466 1465 1465 1466 1468 1468 1470 1471 1471 1475 1480 1484 1488 1492 1496 1499 1502 1506 1508 1512 1511 1511 1513 1517 1522 1526 1525 1527 1529
1481 1479 1476 1473 1473 1472 1472 1470 1468 1465 1465 1464 1462 1460 1459 1459 1459 1459 1460 1461 1461 1463 1464 1467 1469 1472 1478 1483 1488 1494 1497 1500 1504 1506 1510 1508 1511 1516 1518 1523 1522 1523 1524
1485 1484 1483 1480 1478 1475 1472 1468 1467 1466 1465 1462 1458 1456 1454 1454 1453 1454 1454 1454 1453 1453 1454 1459 1461 1460 1462 1468 1478 1488 1493 1495 1495 1498 1499 1501 1505 1513 1514 1519 1517 1519 1520
1488 1485 1482 1479 1478 1476 1475 1472 1469 1466 1462 1459 1456 1452 1450 1448 1448 1447 1448 1448 1448 1449 1449 1450 1455 1457 1457 1462 1462 1467 1477 1483 1490 1491 1495 1498 1504 1507 1510 1514 1515 1516 1516
1490 1486 1482 1479 1476 1473 1470 1467 1465 1461 1458 1456 1453 1450 1446 1444 1444 1443 1444 1443 1444 1444 1442 1442 1448 1450 1451 1457 1457 1463 1469 1474 1483 1486 1488 1492 1499 1503 1506 1509 1510 1510 1512
1488 1484 1480 1475 1473 1470 1467 1463 1460 1457 1454 1451 1447 1445 1443 1440 1438 1438 1439 1439 1438 1436 1436 1436 1439 1443 1446 1450 1452 1458 1464 1470 1475 1481 1487 1489 1493 1499 1501 1505 1505 1506 1507
1490 1485 1480 1474 1467 1463 1460 1456 1452 1450 1447 1444 1442 1440 1438 1435 1433 1431 1430 1431 1430 1430 1429 1431 1432 1435 1440 1444 1448 1453 1458 1465 1470 1475 1483 1485 1489 1494 1496 1497 1502 1503 1504
1485 1476 1470 1465 1460 1457 1453 1448 1445 1442 1439 1437 1435 1433 1431 1429 1427 1425 1424 1423 1423 1423 1422 1422 1424 1429 1434 1438 1443 1448 1454 1459 1466 1473 1478 1482 1485 1488 1491 1492 1496 1499 1501
1474 1470 1465 1459 1452 1447 1444 1438 1434 1431 1431 1428 1425 1424 1422 1420 1419 1417 1414 1415 1414 1415 1415 1417 1419 1424 1428 1433 1438 1444 1450 1458 1463 1468 1472 1477 1481 1484 1484 1488 1491 1495 1496
1464 1462 1455 1448 1444 1442 1438 1430 1425 1423 1420 1417 1415 1412 1412 1410 1409 1408 1407 1407 1408 1409 1410 1411 1415 1419 1423 1430 1435 1441 1448 1454 1460 1463 1468 1473 1476 1479 1481 1485 1488 1489 1487
1470 1462 1451 1441 1437 1434 1431 1421 1415 1414 1410 1407 1403 1401 1401 1401 1400 1399 1399 1400 1401 1402 1404 1406 1408 1413 1418 1425 1431 1439 1444 1450 1456 1461 1465 1469 1472 1475 1478 1481 1481 1482 1483
1466 1459 1450 1440 1429 1424 1418 1413 1408 1405 1401 1396 1392 1392 1391 1391 1391 1390 1391 1392 1393 1395 1397 1399 1403 1406 1412 1418 1425 1433 1439 1446 1453 1457 1462 1466 1468 1472 1474 1475 1477 1478 1478
1464 1456 1447 1438 1428 1420 1410 1403 1396 1393 1390 1386 1383 1381 1380 1381 1382 1382 1383 1384 1386 1387 1390 1393 1395 1399 1405 1413 1420 1427 1435 1442 1448 1454 1457 1461 1464 1467 1469 1471 1472 1473 1473
1462 1454 1446 1436 1425 1415 1406 1397 1390 1383 1379 1377 1374 1372 1371 1371 1374 1375 1375 1377 1379 1382 1385 1389 1392 1397 1403 1411 1421 1429 1435 1441 1447 1450 1453 1456 1459 1462 1465 1466 1467 1468 1469